Skip Page Navigation
NASA JPL Caltech
NASA Logo - Jet Propulsion Laboratory + View the NASA Portal
+ Near-Earth Object (NEO) Program
Search JPL
JPL Home Earth Solar System Stars & Galaxies Technology
JPL Solar System Dynamics
BODIES ORBITS EPHEMERIDES TOOLS PHYSICAL DATA DISCOVERY FAQ SITE MAP
JPL Small-Body Database Browser
Search: [ help ]  
43886 (1995 GR7)
Classification: Main-belt Asteroid          SPK-ID: 2043886
Ephemeris | Orbit Diagram | Orbital Elements | Physical Parameters | Discovery Circumstances ]

[ show orbit diagram ]
Orbital Elements at Epoch 2457000.5 (2014-Dec-09.0) TDB
Reference: JPL 7 (heliocentric ecliptic J2000)
 Element Value Uncertainty (1-sigma)   Units 
e .1911814737109606 6.4364e-08  
a 2.176151730043393 1.7138e-08 AU
q 1.760111835275041 1.3487e-07 AU
i 5.647040403576437 6.5372e-06 deg
node 111.4020868081295 8.6763e-05 deg
peri 189.3085141963339 9.024e-05 deg
M 302.7793653766527 2.9077e-05 deg
tp 2457186.872725151632
(2015-Jun-13.37272515)
9.5965e-05 JED
period 1172.552200726755
3.21
1.3852e-05
3.792e-08
d
yr
n .3070225784207047 3.6269e-09 deg/d
Q 2.592191624811746 2.0415e-08 AU
  Orbit Determination Parameters
   # obs. used (total)      416  
   data-arc span      7838 days (21.46 yr)  
   first obs. used      1994-01-08  
   last obs. used      2015-06-25  
   planetary ephem.      DE431  
   SB-pert. ephem.      SB431-BIG16  
   condition code      0  
   fit RMS      .66802  
   data source      ORB  
   producer      Otto Matic  
   solution date      2015-Jul-06 13:08:23  

Additional Information
 Earth MOID = .745898 AU 
 T_jup = 3.654 
[ show covariance matrix ]

Ephemeris | Orbit Diagram | Orbital Elements | Physical Parameters | Discovery Circumstances ]

Physical Parameter Table
Parameter Symbol Value Units Sigma Reference Notes
absolute magnitude H 16.2 mag n/a MPO287082  

43886 (1995 GR7)          Discovered 1995-Apr-03 by BAO Schmidt CCD Asteroid Program at Xinglong
Reference: 20020822/Numbers.arcLast Updated: 2004-04-19

Alternate Designations
 1995 GR7 = 1999 RL180 
Ephemeris | Orbit Diagram | Orbital Elements | Physical Parameters | Discovery Circumstances ]
ABOUT SSD CREDITS/AWARDS PRIVACY/COPYRIGHT GLOSSARY LINKS
FirstGov 2015-Jul-07 17:36 UT
(server date/time)  
NASA Home Page
Site Manager:   Ryan S. Park
Webmaster  Alan B. Chamberlin